GW4712 Weather Reports


time (UTC)temp
C
wind
direction
speed
KPH
gust
KPH
rain 1hr
cm
rain 24hr
cm
rain mn
cm
humidity
%
barometer
mb
20260508073056 -17 0.0 0.0 0.00 0.00 0.00 1015.7
20260508072551 -17 0.0 0.0 0.00 0.00 0.00 1015.7
20260508072049 -17 0.0 0.0 0.00 0.00 0.00 1015.8
20260508071547 -17 0.0 0.0 0.00 0.00 0.00 1015.9
20260508071045 -17 0.0 0.0 0.00 0.00 0.00 1015.8
20260508070542 -17 0.0 0.0 0.00 0.00 0.00 1015.8
20260508070040 -17 0.0 0.0 0.00 0.00 0.00 1016.0
20260508065537 -17 0.0 0.0 0.00 0.00 0.00 1015.9
20260508065035 -17 0.0 0.0 0.00 0.00 0.00 1015.8
20260508064532 -17 0.0 0.0 0.00 0.00 0.00 1015.7
20260508064030 -17 0.0 0.0 0.00 0.00 0.00 1015.8
20260508063527 -17 0.0 0.0 0.00 0.00 0.00 1015.8
20260508063026 -17 0.0 0.0 0.00 0.00 0.00 1015.7
20260508062522 -17 0.0 0.0 0.00 0.00 0.00 1015.8
20260508062019 -17 0.0 0.0 0.00 0.00 0.00 1015.9
20260508061517 -17 0.0 0.0 0.00 0.00 0.00 1016.0
20260508061013 -17 0.0 0.0 0.00 0.00 0.00 1015.8
20260508060510 -17 0.0 0.0 0.00 0.00 0.00 1015.7
20260508060007 -17 0.0 0.0 0.00 0.00 0.00 1015.9
20260508055503 -17 0.0 0.0 0.00 0.00 0.00 1015.7
20260508054959 2 257 0.0 0.0 0.00 0.00 0.00 97 1016.0
20260508054456 2 257 0.0 0.0 0.00 0.00 0.00 97 1016.0
20260508053953 2 258 0.0 0.0 0.00 0.00 0.00 97 1015.9
20260508053450 2 258 0.0 0.0 0.00 0.00 0.00 97 1016.0
20260508052948 2 258 0.0 0.0 0.00 0.00 0.00 97 1015.8
20260508052445 2 257 0.0 0.0 0.00 0.00 0.00 97 1015.9
20260508051942 2 257 0.0 0.0 0.00 0.00 0.00 97 1015.8
20260508051437 2 257 0.0 0.0 0.00 0.00 0.00 97 1015.8
20260508050933 2 257 0.0 0.0 0.00 0.00 0.00 97 1015.9
20260508050431 2 257 0.0 0.0 0.00 0.00 0.00 96 1016.0
20260508045926 2 257 0.0 0.0 0.00 0.00 0.00 96 1016.0
20260508045425 -17 0.0 0.0 0.00 0.00 0.00 1016.0
20260508044922 -17 0.0 0.0 0.00 0.00 0.00 1015.9
20260508044419 -17 0.0 0.0 0.00 0.00 0.00 1015.7
20260508043914 -17 0.0 0.0 0.00 0.00 0.00 1016.0
20260508043411 2 257 0.0 0.0 0.00 0.00 0.00 96 1015.9
20260508042908 2 257 0.0 0.0 0.00 0.00 0.00 96 1015.9
20260508042400 -17 0.0 0.0 0.00 0.00 0.00 1015.9
20260508041856 -17 0.0 0.0 0.00 0.00 0.00 1015.8
20260508041353 -17 0.0 0.0 0.00 0.00 0.00 1015.6
20260508040849 -17 0.0 0.0 0.00 0.00 0.00 1015.6
20260508040347 -17 0.0 0.0 0.00 0.00 0.00 1015.6
20260508035844 -17 0.0 0.0 0.00 0.03 0.03 1015.6
20260508035341 3 257 0.0 0.0 0.00 0.03 0.03 94 1015.6
20260508034838 3 257 0.0 0.0 0.00 0.03 0.03 94 1015.5
20260508034335 3 258 0.0 0.0 0.00 0.03 0.03 94 1015.6
20260508033832 3 258 0.0 0.0 0.00 0.03 0.03 94 1015.5
20260508033331 3 258 0.0 0.0 0.00 0.03 0.03 93 1015.5
20260508032828 3 258 0.0 0.0 0.00 0.03 0.03 93 1015.4
20260508032325 3 258 0.0 0.0 0.00 0.03 0.03 92 1015.5
20260508031822 3 257 0.0 0.0 0.00 0.03 0.03 91 1015.5
20260508031318 4 258 0.0 0.0 0.00 0.03 0.03 91 1015.4
20260508030814 4 257 0.0 0.0 0.00 0.03 0.03 91 1015.4
20260508030312 4 257 0.0 0.0 0.00 0.03 0.03 91 1015.6
20260508025808 4 257 0.0 0.0 0.00 0.03 0.03 91 1015.5
20260508025306 4 257 0.0 0.0 0.00 0.03 0.03 90 1015.3
20260508024801 5 257 0.0 0.0 0.00 0.03 0.03 90 1015.3
20260508024258 5 257 0.0 0.0 0.00 0.03 0.03 89 1015.3
20260508023755 5 257 0.0 0.0 0.00 0.03 0.03 88 1015.2
20260508023252 5 257 0.0 0.0 0.00 0.03 0.03 87 1015.1
20260508022748 5 257 0.0 0.0 0.00 0.03 0.03 87 1015.2
20260508022245 5 258 0.0 0.0 0.00 0.03 0.03 88 1015.1
20260508021742 5 258 0.0 0.0 0.00 0.03 0.03 88 1014.9
20260508021237 5 258 0.0 0.0 0.00 0.03 0.03 87 1014.7
20260508020735 6 258 0.0 0.0 0.00 0.03 0.03 85 1014.8
20260508020232 6 258 0.0 0.0 0.00 0.03 0.03 87 1014.7
20260508015729 6 258 0.0 0.0 0.00 0.03 0.03 87 1014.6
20260508015226 6 258 0.0 0.0 0.00 0.03 0.03 86 1014.5
20260508014723 6 258 0.0 0.0 0.00 0.03 0.03 85 1014.5
20260508014220 7 258 0.0 0.0 0.00 0.03 0.03 83 1014.4
20260508013716 7 258 0.0 0.0 0.00 0.03 0.03 83 1014.3
20260508013212 7 258 0.0 0.0 0.00 0.03 0.03 80 1014.2
20260508012710 7 258 0.0 0.0 0.00 0.03 0.03 78 1014.3
20260508012206 7 258 0.0 0.0 0.00 0.03 0.03 77 1014.0
20260508011705 7 258 0.0 0.0 0.00 0.03 0.03 74 1014.1
20260508011202 8 258 0.0 0.0 0.00 0.03 0.03 74 1014.0
20260508010659 8 258 0.0 0.0 0.00 0.03 0.03 73 1013.8
20260508010157 8 258 0.0 0.0 0.00 0.03 0.03 70 1013.8
20260508005654 9 258 0.0 0.0 0.00 0.03 0.03 68 1013.8
20260508005151 10 257 0.0 0.0 0.00 0.03 0.03 66 1013.5
20260508004646 10 258 0.0 0.0 0.00 0.03 0.03 63 1013.6
20260508004143 10 258 0.0 0.0 0.00 0.03 0.03 58 1013.7
20260508003639 11 258 0.0 0.0 0.00 0.03 0.03 57 1013.4
20260508003137 11 258 0.0 0.0 0.00 0.03 0.03 57 1013.4
20260508002633 11 213 0.0 0.0 0.00 0.03 0.03 57 1013.4
20260508002131 12 269 0.0 0.0 0.00 0.03 0.03 52 1013.3
20260508001631 12 270 0.0 0.0 0.00 0.03 0.03 49 1013.3
20260508001128 13 283 1.6 1.6 0.00 0.03 0.03 43 1013.1
20260508000623 13 307 0.0 3.2 0.00 0.03 0.03 46 1013.2
20260508000121 13 319 3.2 6.4 0.00 0.03 0.03 41 1013.1
20260507235618 14 307 1.6 3.2 0.00 0.03 0.03 41 1012.9
20260507235115 14 309 6.4 9.7 0.00 0.03 0.03 39 1012.6
20260507234612 15 269 6.4 11.3 0.00 0.03 0.03 36 1013.0
20260507234108 15 309 1.6 4.8 0.00 0.03 0.03 39 1012.8
20260507233605 15 273 4.8 12.9 0.00 0.03 0.03 35 1012.7
20260507233104 15 302 6.4 9.7 0.00 0.03 0.03 35 1012.9
20260507232600 16 308 11.3 16.1 0.00 0.03 0.03 34 1012.7
20260507232057 16 316 4.8 9.7 0.00 0.03 0.03 35 1012.5
20260507231553 16 278 3.2 6.4 0.00 0.03 0.03 40 1012.5
20260507231051 16 313 9.7 12.9 0.00 0.03 0.03 36 1012.5
20260507230547 16 304 14.5 17.7 0.00 0.03 0.03 35 1012.6
20260507230044 16 311 9.7 16.1 0.00 0.03 0.03 36 1012.6
20260507225538 16 316 6.4 6.4 0.00 0.03 0.03 38 1012.3
20260507225035 16 310 12.9 17.7 0.00 0.03 0.03 36 1012.4
20260507224531 16 324 3.2 6.4 0.00 0.03 0.03 34 1012.4
20260507224028 16 257 9.7 17.7 0.00 0.03 0.03 39 1012.5
20260507223524 16 314 6.4 12.9 0.00 0.03 0.03 36 1012.2
20260507223021 16 313 14.5 25.7 0.00 0.03 0.03 36 1012.2
20260507222518 16 316 9.7 12.9 0.00 0.03 0.03 38 1012.3
20260507222015 15 285 6.4 12.9 0.00 0.03 0.03 37 1012.2
20260507221511 15 314 9.7 16.1 0.00 0.03 0.03 39 1012.2
20260507221008 16 312 9.7 12.9 0.00 0.03 0.03 39 1012.1
20260507220505 17 305 11.3 20.9 0.00 0.03 0.03 40 1012.1
20260507220002 16 330 11.3 17.7 0.00 0.03 0.03 35 1012.1
20260507215458 16 356 1.6 16.1 0.00 0.03 0.03 37 1011.8
20260507214956 17 320 14.5 17.7 0.00 0.03 0.03 35 1011.7
20260507214453 17 283 4.8 11.3 0.00 0.03 0.03 38 1011.6
20260507213949 17 318 6.4 14.5 0.00 0.03 0.03 37 1011.7
20260507213446 17 319 14.5 20.9 0.00 0.03 0.03 39 1011.8
20260507212943 16 317 9.7 12.9 0.00 0.03 0.03 39 1011.7
20260507212438 16 313 6.4 11.3 0.00 0.03 0.03 43 1011.9
20260507211936 17 317 11.3 17.7 0.00 0.03 0.03 42 1011.6
20260507211432 18 302 8.0 14.5 0.00 0.03 0.03 38 1011.3
20260507210929 17 249 1.6 12.9 0.00 0.03 0.03 34 1011.3
20260507210426 16 300 11.3 17.7 0.00 0.03 0.03 40 1011.6
20260507205923 16 326 1.6 11.3 0.00 0.03 0.03 40 1011.4
20260507205420 17 331 12.9 14.5 0.00 0.03 0.03 40 1011.4
20260507204916 16 30 4.8 6.4 0.00 0.03 0.03 39 1011.2
20260507204412 16 250 3.2 6.4 0.00 0.03 0.03 40 1011.4
20260507203910 16 314 12.9 17.7 0.00 0.03 0.03 40 1011.6
20260507203408 16 308 14.5 20.9 0.00 0.03 0.03 38 1011.7
20260507202904 16 250 12.9 17.7 0.00 0.03 0.03 44 1011.6
20260507202400 17 324 3.2 4.8 0.00 0.03 0.03 38 1011.3
20260507201856 17 320 3.2 9.7 0.00 0.03 0.03 39 1011.4
20260507201351 17 314 3.2 11.3 0.00 0.03 0.03 44 1011.4
20260507200848 17 308 9.7 16.1 0.00 0.03 0.03 42 1011.5
20260507200344 17 328 4.8 9.7 0.00 0.03 0.03 40 1011.8
20260507195840 17 297 14.5 22.5 0.00 0.03 0.03 43 1011.6
20260507195338 17 255 11.3 12.9 0.00 0.03 0.03 37 1011.7
20260507194835 17 278 8.0 16.1 0.00 0.03 0.03 45 1011.9
20260507194331 17 314 6.4 11.3 0.00 0.03 0.03 40 1011.7
20260507193828 17 323 4.8 9.7 0.00 0.03 0.03 39 1012.2
20260507193325 16 316 8.0 16.1 0.00 0.03 0.03 42 1012.2
20260507192820 15 309 11.3 17.7 0.00 0.03 0.03 43 1012.1
20260507192318 15 314 8.0 17.7 0.00 0.03 0.03 44 1012.4
20260507191814 15 337 9.7 16.1 0.00 0.03 0.03 47 1012.3
20260507191310 16 308 11.3 22.5 0.00 0.03 0.03 46 1012.1
20260507190808 17 330 9.7 16.1 0.00 0.03 0.03 40 1012.3
20260507190306 17 311 8.0 11.3 0.00 0.03 0.03 39 1012.1
20260507185804 17 314 4.8 11.3 0.00 0.03 0.03 46 1012.0
20260507185300 17 310 6.4 12.9 0.00 0.03 0.03 41 1012.1
20260507184758 16 309 8.0 12.9 0.00 0.03 0.03 49 1012.3
20260507184256 17 337 9.7 12.9 0.00 0.03 0.03 41 1012.3
20260507183752 17 329 9.7 12.9 0.00 0.03 0.03 47 1012.3
20260507183250 16 320 11.3 24.1 0.00 0.03 0.03 41 1012.3
20260507182747 17 315 6.4 12.9 0.00 0.03 0.03 45 1012.2
20260507182242 16 312 9.7 20.9 0.00 0.03 0.03 46 1012.4
20260507181739 15 306 9.7 12.9 0.00 0.03 0.03 49 1012.4
20260507181235 16 311 12.9 17.7 0.00 0.03 0.03 47 1012.3
20260507180732 16 286 11.3 16.1 0.00 0.03 0.03 43 1012.2
20260507180229 16 302 12.9 25.7 0.00 0.03 0.03 44 1012.5
20260507175724 16 255 3.2 6.4 0.00 0.03 0.03 45 1012.7
20260507175221 15 307 8.0 20.9 0.00 0.03 0.03 47 1012.7
20260507174719 16 295 6.4 14.5 0.00 0.03 0.03 48 1012.7
20260507174217 15 313 1.6 17.7 0.00 0.03 0.03 53 1012.6
20260507173714 16 310 8.0 12.9 0.00 0.03 0.03 45 1012.6
20260507173211 16 307 9.7 11.3 0.00 0.03 0.03 47 1012.8
20260507172708 16 298 4.8 11.3 0.00 0.03 0.03 44 1012.6
20260507172204 16 266 1.6 6.4 0.00 0.03 0.03 58 1012.7
20260507171704 16 313 12.9 17.7 0.00 0.03 0.03 55 1012.7
20260507171202 15 310 6.4 17.7 0.00 0.03 0.03 53 1013.0
20260507170659 14 309 6.4 12.9 0.00 0.03 0.03 53 1013.0
20260507170156 14 315 9.7 14.5 0.00 0.03 0.03 49 1013.0
20260507165651 15 305 3.2 6.4 0.00 0.03 0.03 50 1013.1
20260507165148 15 265 9.7 12.9 0.00 0.03 0.03 46 1013.0
20260507164644 15 261 8.0 9.7 0.00 0.03 0.03 45 1013.2
20260507164141 15 326 4.8 12.9 0.00 0.03 0.03 54 1013.4
20260507163633 15 326 4.8 12.9 0.00 0.03 0.03 54 1013.4
20260507163131 14 304 4.8 6.4 0.00 0.03 0.03 51 1013.4
20260507162626 14 10 3.2 6.4 0.00 0.03 0.03 56 1013.3
20260507162122 14 326 1.6 6.4 0.00 0.03 0.03 52 1013.3
20260507161618 15 306 1.6 9.7 0.00 0.03 0.03 53 1013.2
20260507161115 14 18 0.0 4.8 0.00 0.03 0.03 50 1013.4
20260507160611 14 5 3.2 9.7 0.00 0.03 0.03 56 1013.5
20260507160108 14 320 6.4 6.4 0.00 0.03 0.03 49 1013.5
20260507155603 13 264 9.7 17.7 0.00 0.03 0.03 52 1013.5
20260507155100 14 259 3.2 11.3 0.00 0.03 0.03 52 1013.7
20260507154557 15 243 3.2 11.3 0.00 0.03 0.03 49 1013.6
20260507154054 14 309 6.4 16.1 0.00 0.03 0.03 51 1013.8
20260507153551 13 311 3.2 9.7 0.00 0.03 0.03 56 1013.6
20260507153047 13 302 3.2 12.9 0.00 0.03 0.03 55 1013.9
20260507152543 13 7 4.8 9.7 0.00 0.03 0.03 55 1013.9
20260507152040 14 312 9.7 12.9 0.00 0.03 0.03 55 1013.7
20260507151536 14 318 0.0 6.4 0.00 0.03 0.03 49 1013.8
20260507151033 13 284 0.0 3.2 0.00 0.03 0.03 52 1014.0
20260507150530 13 231 1.6 6.4 0.00 0.03 0.03 50 1013.7
20260507150027 13 315 1.6 9.7 0.00 0.03 0.03 58 1013.8
20260507145521 14 301 1.6 1.6 0.00 0.03 0.03 53 1013.8
20260507145020 13 175 1.6 3.2 0.00 0.03 0.03 55 1014.0
20260507144516 12 247 4.8 4.8 0.00 0.03 0.03 57 1013.9
20260507144014 13 314 8.0 12.9 0.00 0.03 0.03 59 1014.1
20260507143511 13 331 0.0 4.8 0.00 0.03 0.03 57 1014.1
20260507143008 13 253 4.8 4.8 0.00 0.03 0.03 57 1014.1
20260507142503 13 241 6.4 6.4 0.00 0.03 0.03 56 1014.2
20260507142000 13 277 3.2 4.8 0.00 0.03 0.03 60 1014.5
20260507141456 13 301 1.6 3.2 0.00 0.03 0.03 61 1014.4
20260507140953 12 13 3.2 4.8 0.00 0.03 0.03 61 1014.6
20260507140450 12 309 3.2 6.4 0.00 0.03 0.03 66 1014.5
20260507135947 12 260 3.2 6.4 0.00 0.03 0.03 61 1014.6
20260507135444 12 312 4.8 6.4 0.00 0.03 0.03 65 1014.7
20260507134941 12 314 3.2 6.4 0.00 0.03 0.03 67 1014.7
20260507134438 12 26 4.8 6.4 0.00 0.03 0.03 65 1014.6
20260507133934 12 22 3.2 3.2 0.00 0.03 0.03 63 1014.9
20260507133430 12 22 0.0 3.2 0.00 0.03 0.03 64 1014.8
20260507132929 12 279 3.2 3.2 0.00 0.03 0.03 68 1014.8
20260507132424 11 270 0.0 3.2 0.00 0.03 0.03 72 1014.8
20260507131921 12 227 0.0 0.0 0.00 0.03 0.03 71 1014.9
20260507131418 11 199 0.0 3.2 0.00 0.03 0.03 74 1014.9
20260507130915 11 198 0.0 1.6 0.00 0.03 0.03 72 1014.9
20260507130412 11 198 1.6 3.2 0.00 0.03 0.03 79 1014.8
20260507125911 12 280 1.6 3.2 0.00 0.03 0.03 79 1014.8
20260507125409 11 281 0.0 1.6 0.00 0.03 0.03 81 1014.8
20260507124906 11 281 0.0 0.0 0.00 0.03 0.03 88 1014.9
20260507124401 10 280 0.0 0.0 0.00 0.03 0.03 90 1015.1
20260507123900 10 280 0.0 0.0 0.00 0.03 0.03 90 1014.9
20260507123357 10 280 0.0 0.0 0.00 0.03 0.03 91 1014.9
20260507122853 9 280 0.0 0.0 0.00 0.03 0.03 93 1015.2
20260507122349 9 280 1.6 3.2 0.00 0.03 0.03 95 1015.1
20260507121845 8 281 0.0 0.0 0.00 0.03 0.03 97 1015.1
20260507121341 8 281 0.0 0.0 0.00 0.03 0.03 97 1014.9
20260507120837 8 281 0.0 0.0 0.00 0.03 0.03 99 1014.9
20260507120334 8 281 0.0 0.0 0.00 0.03 0.03 99 1015.2
20260507115830 8 281 0.0 0.0 0.00 0.03 0.03 99 1014.9
20260507115326 8 281 0.0 1.6 0.00 0.03 0.03 99 1015.1
20260507114822 8 281 0.0 0.0 0.00 0.03 0.03 99 1015.1
20260507114319 7 281 0.0 0.0 0.00 0.03 0.03 99 1014.8
20260507113817 7 281 0.0 0.0 0.00 0.03 0.03 99 1014.9
20260507113313 7 281 1.6 1.6 0.00 0.03 0.03 99 1014.7
20260507112811 7 281 1.6 1.6 0.00 0.03 0.03 99 1014.6
20260507112308 7 281 0.0 0.0 0.00 0.03 0.03 99 1014.5
20260507111806 7 281 0.0 0.0 0.00 0.03 0.03 99 1014.5
20260507111302 7 281 0.0 0.0 0.00 0.03 0.03 99 1014.5
20260507110758 7 281 3.2 3.2 0.00 0.03 0.03 99 1014.5
20260507110255 7 279 0.0 0.0 0.00 0.03 0.03 99 1014.4
20260507105752 7 279 0.0 1.6 0.00 0.03 0.03 99 1014.3
20260507105247 7 279 0.0 1.6 0.00 0.03 0.03 99 1014.3
20260507104745 7 279 0.0 0.0 0.00 0.03 0.03 99 1014.1
20260507104242 7 279 0.0 0.0 0.00 0.03 0.03 99 1014.2
20260507103738 7 272 0.0 1.6 0.00 0.03 0.03 99 1014.0
20260507103234 7 272 0.0 0.0 0.00 0.03 0.03 99 1014.2
20260507102730 7 280 0.0 0.0 0.00 0.03 0.03 99 1014.3
20260507102227 7 280 0.0 0.0 0.00 0.03 0.03 99 1014.1
20260507101723 7 280 0.0 0.0 0.00 0.03 0.03 99 1014.3
20260507101219 7 280 0.0 0.0 0.00 0.03 0.03 99 1014.3
20260507100716 7 280 0.0 0.0 0.00 0.03 0.03 99 1014.1
20260507100214 7 280 0.0 0.0 0.00 0.03 0.03 99 1013.9
20260507095712 7 279 0.0 0.0 0.00 0.03 0.03 99 1014.1
20260507095208 7 279 0.0 0.0 0.00 0.03 0.03 99 1014.2
20260507094705 7 279 0.0 0.0 0.00 0.03 0.03 99 1014.0
20260507094202 7 279 0.0 0.0 0.00 0.03 0.03 99 1014.0
20260507093659 7 279 0.0 0.0 0.00 0.03 0.03 99 1013.6
20260507093158 7 279 0.0 0.0 0.00 0.03 0.03 99 1013.9
20260507092654 7 279 0.0 0.0 0.00 0.03 0.03 99 1014.1
20260507092151 7 279 0.0 0.0 0.00 0.03 0.03 99 1014.4
20260507091647 7 279 0.0 0.0 0.00 0.03 0.03 99 1013.9
20260507091144 7 279 0.0 0.0 0.00 0.03 0.03 99 1014.0
20260507090639 7 280 1.6 1.6 0.00 0.03 0.03 98 1013.9
20260507090137 7 295 0.0 0.0 0.00 0.03 0.03 98 1013.7
20260507085634 8 295 0.0 0.0 0.00 0.03 0.03 98 1013.6
20260507085130 8 296 0.0 0.0 0.00 0.03 0.03 98 1014.0
20260507084627 8 296 0.0 0.0 0.00 0.03 0.03 98 1014.0
20260507084124 8 296 0.0 0.0 0.00 0.03 0.03 98 1013.8
20260507083620 8 296 0.0 0.0 0.00 0.03 0.03 98 1013.8
20260507083118 8 296 0.0 0.0 0.00 0.03 0.03 98 1013.7
20260507082613 8 295 0.0 0.0 0.00 0.03 0.03 98 1013.8
20260507082109 8 295 0.0 0.0 0.00 0.03 0.03 98 1014.0
20260507081606 8 295 0.0 0.0 0.00 0.03 0.03 98 1013.8
20260507081103 9 295 0.0 0.0 0.00 0.03 0.03 98 1014.1
20260507080559 9 295 0.0 0.0 0.00 0.03 0.03 98 1013.9
20260507080056 9 295 0.0 0.0 0.00 0.03 0.03 98 1013.8
20260507075551 9 296 0.0 0.0 0.00 0.03 0.03 98 1014.0
20260507075047 9 295 0.0 0.0 0.00 0.03 0.03 98 1013.9
20260507074544 9 295 0.0 0.0 0.00 0.03 0.03 98 1013.7
20260507074043 9 295 0.0 0.0 0.00 0.03 0.03 98 1013.8
20260507073538 9 295 0.0 0.0 0.00 0.03 0.03 98 1014.1